Change the Weather History Date:

Sunday, April 6, 2014

  Actual Average Record
Temperature  
Mean Temperature 48 °F -  
Max Temperature 55 °F 71 °F 97 °F (1954)
Min Temperature 41 °F 43 °F 26 °F (1950)
Degree Days  
Heating Degree Days 17    
Moisture  
Dew Point 41 °F    
Average Humidity 71    
Maximum Humidity 86    
Minimum Humidity 54    
Precipitation  
Precipitation 0.00 in - - ()
Sea Level Pressure  
Sea Level Pressure 29.90 in    
Wind  
Wind Speed 5 mph (SE)    
Max Wind Speed 12 mph    
Max Gust Speed -    
Visibility 9 miles    
Events Rain    
Averages and records for this station are not official NWS values.
T = Trace of Precipitation, MM = Missing Value Source: NWS Daily Summary

Daily Weather History Graph

Daily Weather History Graph

Search for Another Location

Airport or City:

Trip Planner

Search our weather history database for the weather conditions in past years. The results will help you decide how hot, cold, wet, or windy it might be!

Date:

Astronomy

Apr. 06, 2014 Rise Set
Actual Time 7:08 AM CDT 7:55 PM CDT
Civil Twilight 6:43 AM CDT 8:21 PM CDT
Nautical Twilight 6:12 AM CDT 8:52 PM CDT
Astronomical Twilight 5:40 AM CDT 9:23 PM CDT
Moon 12:17 PM CDT (4/6) 1:46 AM CDT (4/6)
Length of Visible Light 13h 38m
Length of Day
12h 46m
Waxing Crescent, 44% of the Moon is Illuminated
Apr 6
Waxing Crescent
Apr 7
First Quarter
Apr 15
Full
Apr 22
Last Quarter
Apr 29
New

Hourly Weather History & Observations

Time (CDT) Temp. Windchill Dew Point Humidity Pressure Visibility Wind Dir Wind Speed Gust Speed Precip Events Conditions
12:53 AM 52.0 °F - 37.0 °F 57% 30.04 in 10.0 mi South 8.1 mph - N/A   Overcast
1:53 AM 51.1 °F - 36.0 °F 56% 30.04 in 10.0 mi South 6.9 mph - N/A   Overcast
2:53 AM 50.0 °F - 37.9 °F 63% 30.01 in 10.0 mi Calm Calm - N/A   Overcast
3:53 AM 48.9 °F - 39.0 °F 69% 29.98 in 10.0 mi East 5.8 mph - N/A   Overcast
4:53 AM 48.9 °F - 39.0 °F 69% 29.96 in 10.0 mi SE 4.6 mph - N/A   Overcast
5:53 AM 45.0 °F 42.6 °F 37.9 °F 76% 29.94 in 10.0 mi ESE 4.6 mph - N/A   Clear
6:53 AM 41.0 °F - 36.0 °F 82% 29.95 in 10.0 mi Calm Calm - N/A   Clear
7:53 AM 45.0 °F - 39.9 °F 82% 29.95 in 9.0 mi Calm Calm - N/A   Clear
8:53 AM 50.0 °F - 37.9 °F 63% 29.94 in 10.0 mi SSE 11.5 mph - N/A   Clear
9:53 AM 52.0 °F - 36.0 °F 54% 29.93 in 10.0 mi SSE 5.8 mph - N/A   Clear
10:53 AM 52.0 °F - 36.0 °F 54% 29.93 in 10.0 mi SE 5.8 mph - N/A   Mostly Cloudy
11:53 AM 52.0 °F - 37.0 °F 57% 29.91 in 10.0 mi Calm Calm - N/A   Scattered Clouds
12:53 PM 53.1 °F - 39.0 °F 59% 29.92 in 10.0 mi West 4.6 mph - N/A   Mostly Cloudy
1:53 PM 54.0 °F - 39.0 °F 57% 29.89 in 10.0 mi Calm Calm - N/A   Mostly Cloudy
2:53 PM 55.0 °F - 39.9 °F 57% 29.88 in 10.0 mi South 5.8 mph - N/A   Overcast
3:53 PM 54.0 °F - 42.1 °F 64% 29.87 in 10.0 mi SW 6.9 mph - 0.00 in Rain Light Rain
4:53 PM 53.1 °F - 44.1 °F 71% 29.87 in 10.0 mi SSW 5.8 mph - 0.00 in   Overcast
5:21 PM 51.8 °F - 42.8 °F 71% 29.85 in 10.0 mi South 6.9 mph - N/A   Overcast
5:53 PM 52.0 °F - 44.1 °F 74% 29.86 in 9.0 mi SSE 5.8 mph - N/A   Overcast
6:53 PM 51.1 °F - 44.1 °F 77% 29.83 in 8.0 mi ESE 6.9 mph - N/A   Mostly Cloudy
7:08 PM 51.8 °F - 44.6 °F 76% 29.83 in 7.0 mi ESE 5.8 mph - N/A   Mostly Cloudy
7:53 PM 50.0 °F - 44.1 °F 80% 29.83 in 10.0 mi East 6.9 mph - N/A   Overcast
8:05 PM 48.2 °F - 42.8 °F 82% 29.82 in 10.0 mi ESE 5.8 mph - N/A   Mostly Cloudy
8:29 PM 48.2 °F - 42.8 °F 82% 29.83 in 9.0 mi Calm Calm - N/A   Mostly Cloudy
8:53 PM 48.9 °F - 43.0 °F 80% 29.83 in 9.0 mi SSE 3.5 mph - N/A   Overcast
9:05 PM 48.2 °F - 42.8 °F 82% 29.83 in 8.0 mi SE 4.6 mph - N/A   Overcast
9:53 PM 48.9 °F - 44.1 °F 83% 29.85 in 7.0 mi East 3.5 mph - N/A   Overcast
10:53 PM 48.9 °F - 44.1 °F 83% 29.85 in 6.0 mi Calm Calm - N/A   Haze
11:53 PM 48.0 °F - 44.1 °F 86% 29.84 in 6.0 mi Calm Calm - N/A   Mostly Cloudy